Location: Marcé
(47.5801°N, 0.3280°W)
Time: 04:44:34
(UTC+02:00)

FALCONSAT-6 - Visible Passes

Search period start: 01 July 2022 00:00
Search period end: 11 July 2022 00:00
Orbit: 556 x 586 km, 97.6° (Epoch: 30 June)

Date Brightness Start Highest point End Pass type
(mag) Time Alt. Az. Time Alt. Az. Time Alt. Az.
01 Jul ? 00:03:54 14° SSW 00:07:10 39° W 00:11:05 10° NNW visible
02 Jul ? 00:06:12 14° SSW 00:09:26 37° W 00:13:19 10° NNW visible
03 Jul ? 00:08:30 13° SSW 00:11:43 35° W 00:15:33 10° NNW visible
04 Jul ? 00:10:49 13° SSW 00:14:00 33° W 00:17:47 10° NNW visible
04 Jul ? 22:37:43 10° SE 22:41:13 27° ENE 22:44:43 10° N visible
05 Jul ? 00:13:07 13° SSW 00:16:16 31° W 00:20:00 10° NNW visible
05 Jul ? 22:39:54 10° SE 22:43:27 28° ENE 22:47:01 10° N visible
06 Jul ? 00:15:26 13° SSW 00:18:33 30° W 00:22:14 10° NNW visible
06 Jul ? 22:42:06 10° SE 22:45:42 30° ENE 22:49:19 10° N visible
07 Jul ? 00:17:44 13° SSW 00:20:50 28° W 00:24:27 10° NW visible
07 Jul ? 22:44:18 10° SE 22:47:58 31° ENE 22:51:37 10° N visible
08 Jul ? 00:20:03 12° SSW 00:23:07 27° W 00:26:39 10° NW visible
08 Jul ? 22:46:30 10° SE 22:50:12 33° ENE 22:53:55 10° N visible
09 Jul ? 00:22:22 12° SSW 00:25:23 25° W 00:28:52 10° NW visible
09 Jul ? 22:48:43 10° SE 22:52:27 34° ENE 22:56:12 10° N visible
10 Jul ? 00:24:41 12° SW 00:27:40 24° W 00:31:04 10° NW visible
10 Jul ? 22:50:55 10° SE 22:54:43 36° ENE 22:58:30 10° N visible
